When you browse on this site, cookies collect data to enhance your experience and personalize the content and advertising you see.
Visit our Privacy Policy to learn more. By continuing to use the site, you agree to this use of cookies and data.
  • In Romania
  • List of Countries
  • For 7 days
  • Water Temperature
  • Satellite Maps
  • Weather Map
  • Weather Widgets
  • user-avatar
    Login

    Hourly Weather Newcastle

    Today, 20 June, Thursday

    Time Temperature Precipitation Wind Pressure Humidity
    00:00 +8°C° 0 mm 2 mps 766 mmHg 75%
    01:00 +8°C° 0 mm 2 mps 766 mmHg 77%
    02:00 +8°C° 0 mm 2 mps 766 mmHg 76%
    03:00 +8°C° 0 mm 3 mps 766 mmHg 75%
    04:00 +8°C° 0 mm 3 mps 766 mmHg 71%
    05:00 +8°C° 0 mm 3 mps 767 mmHg 72%
    06:00 +8°C° 0 mm 3 mps 767 mmHg 74%
    07:00 +7°C° 0 mm 3 mps 767 mmHg 76%
    08:00 +9°C° 0.1 mm 3 mps 767 mmHg 71%
    09:00 +11°C° 0.1 mm 3 mps 767 mmHg 66%
    10:00 +14°C° 0 mm 2 mps 767 mmHg 60%
    11:00 +15°C° 0 mm 2 mps 766 mmHg 61%
    12:00 +16°C° 0 mm 2 mps 765 mmHg 61%
    13:00 +17°C° 0 mm 3 mps 765 mmHg 62%
    14:00 +17°C° 0.1 mm 2 mps 765 mmHg 65%
    15:00 +16°C° 0.1 mm 2 mps 764 mmHg 69%
    16:00 +15°C° 0.1 mm 2 mps 764 mmHg 72%
    17:00 +15°C° 0.1 mm 2 mps 765 mmHg 74%
    18:00 +14°C° 0.1 mm 2 mps 765 mmHg 76%
    19:00 +13°C° 0.1 mm 1 mps 765 mmHg 77%
    20:00 +13°C° 0.1 mm 1 mps 765 mmHg 79%
    21:00 +13°C° 0.1 mm 1 mps 765 mmHg 81%
    22:00 +12°C° 0.1 mm 1 mps 765 mmHg 83%
    23:00 +12°C° 0.2 mm 1 mps 765 mmHg 87%

    Tomorrow, 21 June, Friday

    Time Temperature Precipitation Wind Pressure Humidity
    00:00 +10°C° 0.2 mm 2 mps 765 mmHg 90%
    01:00 +9°C° 0.2 mm 3 mps 764 mmHg 94%
    02:00 +8°C° 0.1 mm 3 mps 764 mmHg 92%
    03:00 +7°C° 0.1 mm 4 mps 764 mmHg 90%
    04:00 +6°C° 0.1 mm 4 mps 765 mmHg 88%
    05:00 +6°C° 0.1 mm 4 mps 765 mmHg 88%
    06:00 +5°C° 0.1 mm 4 mps 765 mmHg 88%
    07:00 +5°C° 0.1 mm 4 mps 765 mmHg 88%
    08:00 +6°C° 0 mm 4 mps 765 mmHg 81%
    09:00 +8°C° 0 mm 4 mps 766 mmHg 73%
    10:00 +10°C° 0 mm 5 mps 766 mmHg 65%
    11:00 +12°C° 0 mm 5 mps 765 mmHg 59%
    12:00 +13°C° 0 mm 5 mps 765 mmHg 52%
    13:00 +15°C° 0 mm 5 mps 765 mmHg 45%
    14:00 +14°C° 0 mm 5 mps 765 mmHg 48%
    15:00 +13°C° 0 mm 5 mps 765 mmHg 51%
    16:00 +13°C° 0 mm 5 mps 765 mmHg 54%
    17:00 +10°C° 0 mm 5 mps 766 mmHg 58%
    18:00 +9°C° 0 mm 5 mps 766 mmHg 63%
    19:00 +8°C° 0 mm 5 mps 767 mmHg 67%
    20:00 +7°C° 0.3 mm 6 mps 767 mmHg 68%
    21:00 +7°C° 0.3 mm 6 mps 767 mmHg 69%
    22:00 +7°C° 0.3 mm 6 mps 768 mmHg 70%
    23:00 +7°C° 0.2 mm 6 mps 767 mmHg 70%

    Day after tomorrow, 22 June, Saturday

    Time Temperature Precipitation Wind Pressure Humidity
    00:00 +6°C° 0.2 mm 7 mps 767 mmHg 70%
    01:00 +6°C° 0.2 mm 7 mps 767 mmHg 71%
    02:00 +5°C° 0.2 mm 7 mps 767 mmHg 72%
    03:00 +5°C° 0.2 mm 7 mps 767 mmHg 73%
    04:00 +4°C° 0.2 mm 6 mps 767 mmHg 74%
    05:00 +4°C° 0.2 mm 6 mps 767 mmHg 75%
    06:00 +3°C° 0.2 mm 5 mps 767 mmHg 77%
    07:00 +3°C° 0.2 mm 5 mps 768 mmHg 78%
    08:00 +6°C° 0.3 mm 5 mps 768 mmHg 74%
    09:00 +7°C° 0.3 mm 5 mps 768 mmHg 69%
    10:00 +9°C° 0.3 mm 5 mps 768 mmHg 65%
    11:00 +10°C° 0.5 mm 5 mps 768 mmHg 67%
    12:00 +12°C° 0.5 mm 5 mps 767 mmHg 70%
    13:00 +13°C° 0.5 mm 5 mps 767 mmHg 72%
    14:00 +13°C° 0.9 mm 5 mps 767 mmHg 75%
    15:00 +13°C° 0.9 mm 6 mps 767 mmHg 78%
    16:00 +11°C° 0.9 mm 6 mps 767 mmHg 81%
    17:00 +10°C° 0.6 mm 6 mps 767 mmHg 85%
    18:00 +10°C° 0.6 mm 5 mps 768 mmHg 88%
    19:00 +9°C° 0.6 mm 5 mps 768 mmHg 92%
    20:00 +8°C° 0.9 mm 5 mps 768 mmHg 92%
    21:00 +8°C° 0.9 mm 5 mps 768 mmHg 92%
    22:00 +8°C° 0.9 mm 5 mps 768 mmHg 92%
    23:00 +7°C° 0.8 mm 5 mps 768 mmHg 92%

    23 June, Sunday

    Time Temperature Precipitation Wind Pressure Humidity
    00:00 +7°C° 0.8 mm 4 mps 768 mmHg 92%
    01:00 +7°C° 0.8 mm 4 mps 768 mmHg 91%
    02:00 +6°C° 0.9 mm 4 mps 768 mmHg 92%
    03:00 +6°C° 0.9 mm 4 mps 768 mmHg 93%
    04:00 +5°C° 0.9 mm 4 mps 768 mmHg 94%
    05:00 +5°C° 1.4 mm 4 mps 768 mmHg 95%
    06:00 +5°C° 1.4 mm 4 mps 768 mmHg 95%
    07:00 +6°C° 1.4 mm 4 mps 768 mmHg 96%
    08:00 +6°C° 2.4 mm 5 mps 769 mmHg 95%
    09:00 +7°C° 2.4 mm 5 mps 769 mmHg 94%
    10:00 +7°C° 2.4 mm 5 mps 769 mmHg 93%
    11:00 +8°C° 1.6 mm 5 mps 768 mmHg 92%
    12:00 +10°C° 1.6 mm 4 mps 768 mmHg 90%
    13:00 +10°C° 1.6 mm 4 mps 767 mmHg 89%
    14:00 +10°C° 1.3 mm 4 mps 768 mmHg 90%
    15:00 +10°C° 1.3 mm 4 mps 768 mmHg 92%
    16:00 +10°C° 1.3 mm 3 mps 768 mmHg 94%
    17:00 +10°C° 1.2 mm 3 mps 768 mmHg 94%
    18:00 +10°C° 1.2 mm 3 mps 769 mmHg 94%
    19:00 +10°C° 1.2 mm 3 mps 769 mmHg 94%
    20:00 +9°C° 0.8 mm 3 mps 769 mmHg 93%
    21:00 +9°C° 0.8 mm 3 mps 770 mmHg 93%
    22:00 +9°C° 0.8 mm 3 mps 770 mmHg 93%
    23:00 +9°C° 0.9 mm 3 mps 770 mmHg 94%

    24 June, Monday

    Time Temperature Precipitation Wind Pressure Humidity
    00:00 +8°C° 0.9 mm 3 mps 770 mmHg 94%
    01:00 +7°C° 0.9 mm 4 mps 770 mmHg 95%
    02:00 +7°C° 0.7 mm 4 mps 770 mmHg 95%
    03:00 +8°C° 0.7 mm 3 mps 770 mmHg 95%
    04:00 +8°C° 0.7 mm 3 mps 770 mmHg 94%
    05:00 +7°C° 0.6 mm 4 mps 770 mmHg 94%
    06:00 +7°C° 0.6 mm 4 mps 771 mmHg 93%
    07:00 +8°C° 0.6 mm 4 mps 771 mmHg 93%
    08:00 +10°C° 0.5 mm 4 mps 772 mmHg 90%
    09:00 +11°C° 0.5 mm 4 mps 772 mmHg 88%
    10:00 +13°C° 0.5 mm 4 mps 773 mmHg 85%
    11:00 +14°C° 0.5 mm 4 mps 772 mmHg 83%
    12:00 +14°C° 0.5 mm 5 mps 772 mmHg 80%
    13:00 +15°C° 0.5 mm 5 mps 772 mmHg 77%
    14:00 +15°C° 0.3 mm 5 mps 772 mmHg 79%
    15:00 +15°C° 0.3 mm 5 mps 771 mmHg 80%
    16:00 +14°C° 0.3 mm 4 mps 771 mmHg 82%
    17:00 +13°C° 0.1 mm 4 mps 772 mmHg 84%
    18:00 +12°C° 0.1 mm 4 mps 773 mmHg 86%
    19:00 +11°C° 0.1 mm 3 mps 773 mmHg 88%
    20:00 +11°C° 0.1 mm 4 mps 773 mmHg 89%
    21:00 +11°C° 0.1 mm 4 mps 773 mmHg 89%
    22:00 +11°C° 0.1 mm 4 mps 773 mmHg 89%
    23:00 +11°C° 0 mm 4 mps 773 mmHg 90%

    25 June, Tuesday

    Time Temperature Precipitation Wind Pressure Humidity
    00:00 +11°C° 0 mm 4 mps 773 mmHg 90%
    01:00 +10°C° 0 mm 4 mps 773 mmHg 90%
    02:00 +10°C° 0.1 mm 3 mps 773 mmHg 90%
    03:00 +10°C° 0.1 mm 3 mps 773 mmHg 90%
    04:00 +10°C° 0.1 mm 3 mps 773 mmHg 90%
    05:00 +11°C° 0.3 mm 3 mps 773 mmHg 91%
    06:00 +11°C° 0.3 mm 3 mps 774 mmHg 91%
    07:00 +11°C° 0.3 mm 3 mps 774 mmHg 92%
    08:00 +12°C° 0.3 mm 3 mps 774 mmHg 91%
    09:00 +12°C° 0.3 mm 3 mps 775 mmHg 90%
    10:00 +13°C° 0.3 mm 3 mps 775 mmHg 89%
    11:00 +14°C° 0.1 mm 3 mps 774 mmHg 83%
    12:00 +15°C° 0.1 mm 4 mps 774 mmHg 77%
    13:00 +17°C° 0.1 mm 4 mps 773 mmHg 72%
    14:00 +17°C° 0.1 mm 4 mps 773 mmHg 71%
    15:00 +15°C° 0.1 mm 4 mps 773 mmHg 70%
    16:00 +15°C° 0.1 mm 4 mps 773 mmHg 70%
    17:00 +14°C° 0.1 mm 4 mps 774 mmHg 74%
    18:00 +13°C° 0.1 mm 4 mps 774 mmHg 79%
    19:00 +12°C° 0.1 mm 4 mps 775 mmHg 83%
    20:00 +12°C° 0 mm 4 mps 775 mmHg 85%
    21:00 +12°C° 0 mm 4 mps 775 mmHg 86%
    22:00 +10°C° 0 mm 5 mps 775 mmHg 87%
    23:00 +12°C° 0.3 mm 5 mps 775 mmHg 88%
    Show more